Lamoni, IA

1:19 PM CDT on June 25, 2017 (GMT -0500)
Lamoni Municipal

Weather History for KLWD - November, 2011

Change the Weather History Date:

Friday, November 25, 2011

  Actual Average Record
Temperature  
Mean Temperature 49 °F 35 °F  
Max Temperature 55 °F 43 °F 60 °F (1976)
Min Temperature 42 °F 26 °F 4 °F (1991)
Degree Days  
Heating Degree Days 16 30  
Month to date heating degree days 526 604  
Since 1 July heating degree days 1002 1088  
Cooling Degree Days 0 0  
Month to date cooling degree days 0 0  
Year to date cooling degree days 1144 946  
Moisture  
Dew Point 44 °F    
Average Humidity 78    
Maximum Humidity 89    
Minimum Humidity 66    
Precipitation  
Precipitation T in 0.06 in 0.98 in (1988)
Month to date precipitation 3.64 1.93  
Year to date precipitation 33.46  
Sea Level Pressure  
Sea Level Pressure 29.81 in    
Wind  
Wind Speed 14 mph (South)    
Max Wind Speed 25 mph    
Max Gust Speed 33 mph    
Visibility 9 miles    
Events      
T = Trace of Precipitation, MM = Missing Value Source: NWS Daily Summary

Daily Weather History Graph

Daily Weather History Graph

Search for Another Location

Airport or City:

Trip Planner

Search our weather history database for the weather conditions in past years. The results will help you decide how hot, cold, wet, or windy it might be!

Date:

Astronomy

Nov. 25, 2011 Rise Set
Actual Time 7:13 AM CST 4:51 PM CST
Civil Twilight 6:43 AM CST 5:21 PM CST
Nautical Twilight 6:09 AM CST 5:55 PM CST
Astronomical Twilight 5:37 AM CST 6:27 PM CST
Moon 7:42 AM CST 5:19 PM CST
Length of Visible Light 10h 37m
Length of Day
9h 38m
New Moon, 0% of the Moon is Illuminated
Nov 25
New Moon
Dec 2
First Quarter
Dec 10
Full
Dec 17
Last Quarter
Dec 24
New

Hourly Weather History & Observations

Time (CST) Temp. Windchill Dew Point Humidity Pressure Visibility Wind Dir Wind Speed Gust Speed Precip Events Conditions
12:53 AM 45.0 °F 39.3 °F 37.0 °F 74% 29.92 in 10.0 mi South 11.5 mph - N/A   Clear
2:53 AM 44.1 °F 37.4 °F 37.9 °F 79% 29.90 in 10.0 mi South 13.8 mph - N/A   Clear
4:53 AM 42.1 °F 35.7 °F 37.9 °F 85% 29.88 in 10.0 mi South 11.5 mph - N/A   Clear
5:53 AM 42.1 °F 36.1 °F 39.0 °F 89% 29.87 in 10.0 mi South 10.4 mph - N/A   Clear
6:41 AM 44.6 °F 37.8 °F 39.2 °F 81% 29.86 in 10.0 mi South 15.0 mph - N/A   Mostly Cloudy
6:53 AM 45.0 °F 37.6 °F 41.0 °F 86% 29.87 in 10.0 mi SSW 17.3 mph 23.0 mph N/A   Overcast
7:53 AM 46.0 °F 39.6 °F 42.1 °F 86% 29.88 in 9.0 mi SSW 15.0 mph - N/A   Overcast
8:53 AM 46.9 °F - 43.0 °F 86% 29.88 in 8.0 mi SSW 13.8 mph - N/A   Overcast
9:53 AM 48.0 °F - 43.0 °F 83% 29.86 in 8.0 mi SSW 17.3 mph - N/A   Overcast
10:53 AM 48.9 °F - 44.1 °F 83% 29.85 in 8.0 mi SSW 15.0 mph 23.0 mph N/A   Overcast
11:53 AM 48.9 °F - 44.1 °F 83% 29.83 in 7.0 mi South 15.0 mph 26.5 mph N/A   Overcast
12:53 PM 50.0 °F - 44.1 °F 80% 29.81 in 7.0 mi SSW 18.4 mph 25.3 mph N/A   Overcast
1:22 PM 50.0 °F - 44.6 °F 82% 29.77 in 8.0 mi South 16.1 mph 23.0 mph N/A   Overcast
1:53 PM 51.1 °F - 45.0 °F 80% 29.78 in 8.0 mi South 16.1 mph 21.9 mph N/A   Overcast
3:53 PM 52.0 °F - 46.0 °F 80% 29.76 in 8.0 mi South 13.8 mph 19.6 mph N/A   Overcast
4:53 PM 52.0 °F - 46.9 °F 83% 29.77 in 8.0 mi South 12.7 mph - N/A   Overcast
5:53 PM 54.0 °F - 46.9 °F 77% 29.76 in 10.0 mi SSW 23.0 mph 29.9 mph N/A   Overcast
6:53 PM 54.0 °F - 46.9 °F 77% 29.75 in 10.0 mi South 15.0 mph - N/A   Overcast
7:49 PM 53.6 °F - 46.4 °F 77% 29.75 in 10.0 mi South 11.5 mph - N/A   Overcast
7:53 PM 54.0 °F - 46.9 °F 77% 29.76 in 10.0 mi South 11.5 mph - N/A   Overcast
8:15 PM 53.6 °F - 46.4 °F 77% 29.75 in 10.0 mi South 12.7 mph 19.6 mph N/A   Overcast
8:53 PM 54.0 °F - 46.9 °F 77% 29.75 in 10.0 mi South 13.8 mph 20.7 mph N/A   Overcast
9:01 PM 53.6 °F - 46.4 °F 77% 29.74 in 10.0 mi South 13.8 mph - N/A   Overcast
9:16 PM 53.6 °F - 46.4 °F 77% 29.74 in 10.0 mi South 11.5 mph - N/A   Overcast
10:53 PM 55.0 °F - 48.0 °F 77% 29.74 in 10.0 mi South 17.3 mph - N/A   Overcast
11:40 PM 55.4 °F - 48.2 °F 77% 29.74 in 10.0 mi SSW 16.1 mph 25.3 mph N/A   Overcast